Location: Katowice
(50.2611°N, 19.0242°E)
Time: 06:22:04
(UTC+02:00)

Vanguard 1 - Pass Details

Date: 02 October 2020
Orbit: 650 x 3832 km, 34.2° (Epoch: 21 October)

Event Time Altitude Azimuth Distance (km) Brightness Sun altitude
Rises 21:30:56 0° 230° (SW) 4,670 13.7 -30.0°
Reaches altitude 10° 21:35:56 10° 211° (SSW) 3,093 12.5 -30.7°
Enters shadow 21:36:39 11° 207° (SSW) 2,900 12.4 -30.8°
